Warning: Javascript must be enabled to use all the features on this page!


Page Loading - Please Wait...

Click to hideNews Bulletins

Peak Streamflow for the Nation

USGS 11062000 LYTLE C NR FONTANA CA

San Bernardino County, California
Hydrologic Unit Code 18070203
Latitude  34°12'44", Longitude 117°27'26" NAD27
Drainage area 46.6  square miles
Gage datum 2,369.54 feet above NAVD88
Output formats
Table
Graph
Tab-separated file
peakfq (watstore) format
Reselect output format
Water
Year
Date Gage
Height
(feet)
Stream-
flow
(cfs)
1920 1920-03-02 1.18 2915
1921 1921-03-13   1602,5
1926 1926-04-06 4.55 5005
1927 1927-02-16 5.40 5,3005
1931 1931-04-26 3.25 4175
1932 1932-02-08 3.65 8655
1933 1933-01-19 3.14 1005
1934 1934-01-01 5.30 5605
1935 1935-04-08 5.80 1,5005
1936 1936-02-02 5.05 7305
1937 1937-02-06 5.10 1,2505
1938 1938-03-02   25,2005
1943 1943-01-23   4,8005
1947 1946-11-20   1,0005
1948 1948-04-03   1405
1949 1949-01-20   2005
1950 1949-12-19 2.23 2075
1951 1951-04-28 1.86 65.05
1952 1952-01-16 3.25 1,5005
1953 1952-12-01 2.71 98.05
1954 1954-01-25 4.03 7805
1955 1954-11-11 3.44 1145
1956 1956-01-26 3.83 9645
1957 1957-01-12 3.15 5755
1958 1958-04-03 4.52 1,1905
1959 1959-02-16 4.72 8325
1960 1960-01-10 3.40 96.05
1961 1961-01-26 3.50 1025
1962 1961-12-02 5.75 7605
1963 1963-02-10 4.30 1225
1964 1964-04-01 2.906 2775
1965 1965-04-09 2.82 80.05
1966 1965-12-29 10.78 9,1205
1967 1966-12-06 9.76 7,2005
1968 1967-11-19 5.96 3365
1969 1969-01-25 15.00  
1970 1970-02-28 5.30 1455
1971 1970-11-29 7.50 1,1005
1972 1971-12-24 6.95 1,3605
1973 1973-02-11 6.78 1,5805
1974 1974-01-07 5.30 2665
1975 1975-03-06 4.78 1995
1976 1976-09-10 5.20 3955
1977 1977-01-03 4.16 3055
1978 1978-03-04 7.80 8,6002,5
1979 1979-03-27 4.84 3405
1980 1980-02-16 9.22 10,3005
1981 1981-01-29 5.26 2665
1982 1982-03-17 5.82 8355
1983 1983-03-02 7.56 4,0005
1984 1983-12-25 5.29 4205
1985 1984-12-27 4.44 2505
1986 1986-01-30 4.94 3705
1987 1987-01-04 4.45 2425
1988 1988-01-17 4.67 4702,5
1991 1991-03-01 5.91 1,3005
1992 1992-02-12 7.55 2,2105
1993 1993-02-08 8.95 3,1505
1994 1994-02-07 3.82 4495
1995 1995-02-14 6.91 1,8305
1996 1996-01-31 4.75 7805
1997 1996-12-22 3.72 4185
1998 1998-02-23 8.93 3,4805
1999 1998-11-28 2.49 1005
2000 2000-02-20 4.04 5215
2001 2001-02-13 3.22 1895
2002 2002-01-28 2.84 1515
2003 2003-02-12 4.54 6995
2004 2003-12-25 14.17 3,6005
2005 2005-01-09   6,0002,5
2006 2006-02-28 8.89 3,1105
2007 2007-01-04 3.09 26.05
2008 2008-01-05 5.13 8245
2009 2008-12-25 3.44 2205
2010 2009-12-12 5.66 9325
2011 2010-12-20 13.86 8,9002,5
2012 2012-03-17 3.78 1365
2013 2012-12-13 3.01 25.05
2014 2014-02-28 4.67 4655
2015 2014-12-12 4.36 2665
2016 2016-01-31 4.73 3845
2017 2017-01-23 5.72 8055
2018 2018-01-09 4.56 3275
2019 2019-02-14 7.48 1,9705
2020 2020-04-06 4.00 1855
?
  Peak Gage-Height Qualification Codes.
?
  Peak Streamflow Qualification Codes.